Weather History for Pompano Beach, FL

Change the Weather History Date:

Monday, March 18, 2013

  Actual Average Record
Temperature  
Mean Temperature 74 °F -  
Max Temperature 80 °F 81 °F 91 °F (1977)
Min Temperature 68 °F 62 °F 43 °F (1956)
Cooling Degree Days 9    
Growing Degree Days 24 (Base 50)    
Moisture  
Dew Point 66 °F    
Average Humidity 78    
Maximum Humidity 100    
Minimum Humidity 62    
Precipitation  
Precipitation 0.06 in - - ()
Sea Level Pressure  
Sea Level Pressure 30.03 in    
Wind  
Wind Speed 10 mph (SSE)    
Max Wind Speed 21 mph    
Max Gust Speed 26 mph    
Visibility 10 miles    
Events Rain    
Averages and records for this station are not official NWS values.
T = Trace of Precipitation, MM = Missing Value Source: NWS Daily Summary

Daily Weather History Graph

Daily Weather History Graph

Search for Another Location

Airport:

Trip Planner

Search our weather history database for the weather conditions in past years. The results will help you decide how hot, cold, wet, or windy it might be!

Date:

Astronomy

Mar. 18, 2013 Rise Set
Actual Time 7:26 AM EDT 7:30 PM EDT
Civil Twilight 7:03 AM EDT 7:53 PM EDT
Nautical Twilight 6:36 AM EDT 8:20 PM EDT
Astronomical Twilight 6:09 AM EDT 8:47 PM EDT
Moon 11:56 AM EDT 12:57 AM EDT
Length of Visible Light 12h 50m
Length of Day
12h 04m
Waxing Crescent, 40% of the Moon is Illuminated
Mar 18
Waxing Crescent
Mar 19
First Quarter
Mar 27
Full
Apr 3
Last Quarter
Apr 10
New

Hourly Weather History & Observations

Time (EDT) Temp. Heat Index Dew Point Humidity Pressure Visibility Wind Dir Wind Speed Gust Speed Precip Events Conditions
12:53 AM 70.0 °F - 60.1 °F 71% 30.08 in 10.0 mi ESE 6.9 mph - N/A   Clear
1:53 AM 71.1 °F - 61.0 °F 70% 30.07 in 10.0 mi SE 5.8 mph - N/A   Clear
2:53 AM 71.1 °F - 61.0 °F 70% 30.06 in 10.0 mi SSE 6.9 mph - N/A   Partly Cloudy
3:53 AM 71.1 °F - 62.1 °F 73% 30.03 in 10.0 mi SSE 8.1 mph - N/A   Partly Cloudy
4:53 AM 71.1 °F - 63.0 °F 75% 30.05 in 10.0 mi SE 11.5 mph - N/A   Scattered Clouds
5:53 AM 72.0 °F - 62.1 °F 71% 30.04 in 10.0 mi SSE 11.5 mph - N/A   Scattered Clouds
6:53 AM 72.0 °F - 63.0 °F 73% 30.06 in 10.0 mi SSE 12.7 mph - N/A   Scattered Clouds
7:53 AM 72.0 °F - 63.0 °F 73% 30.07 in 10.0 mi SSE 12.7 mph 19.6 mph N/A   Mostly Cloudy
8:53 AM 73.9 °F - 64.0 °F 71% 30.08 in 10.0 mi SE 9.2 mph 19.6 mph N/A   Mostly Cloudy
9:53 AM 75.0 °F - 64.0 °F 69% 30.09 in 10.0 mi SSE 13.8 mph - N/A   Mostly Cloudy
10:53 AM 75.9 °F - 64.9 °F 69% 30.08 in 10.0 mi SSE 16.1 mph - N/A   Mostly Cloudy
11:53 AM 78.1 °F - 64.9 °F 64% 30.07 in 10.0 mi SSE 16.1 mph - N/A   Partly Cloudy
12:53 PM 80.1 °F 82.1 °F 66.0 °F 62% 30.05 in 10.0 mi SSE 16.1 mph 24.2 mph N/A   Scattered Clouds
1:46 PM 78.8 °F - 66.2 °F 65% 30.03 in 10.0 mi South 18.4 mph 26.5 mph N/A   Mostly Cloudy
1:53 PM 79.0 °F - 66.0 °F 64% 30.03 in 10.0 mi SSE 20.7 mph 26.5 mph N/A   Mostly Cloudy
2:00 PM 78.8 °F - 66.2 °F 65% 30.02 in 10.0 mi SSE 19.6 mph 26.5 mph N/A   Scattered Clouds
2:53 PM 78.1 °F - 66.9 °F 68% 30.00 in 10.0 mi SSE 16.1 mph 23.0 mph N/A   Partly Cloudy
3:53 PM 77.0 °F - 66.9 °F 71% 29.99 in 10.0 mi SSE 16.1 mph - N/A   Mostly Cloudy
4:53 PM 75.9 °F - 68.0 °F 76% 30.00 in 10.0 mi SSE 12.7 mph 20.7 mph N/A   Scattered Clouds
5:53 PM 75.0 °F - 70.0 °F 84% 30.00 in 10.0 mi SSE 12.7 mph - 0.00 in Rain Light Rain
6:53 PM 73.0 °F - 71.1 °F 93% 30.00 in 8.0 mi South 8.1 mph - 0.02 in Rain Light Rain
7:53 PM 73.0 °F - 71.1 °F 93% 30.01 in 9.0 mi Calm Calm - 0.01 in Rain Light Rain
8:25 PM 69.8 °F - 69.8 °F 100% 30.01 in 9.0 mi NW 9.2 mph 18.4 mph 0.01 in Rain Light Rain
8:53 PM 68.0 °F - 68.0 °F 100% 30.01 in 10.0 mi North 5.8 mph - 0.02 in   Overcast
9:24 PM 68.0 °F - 68.0 °F 100% 30.01 in 10.0 mi NNW 8.1 mph - N/A   Overcast
9:53 PM 68.0 °F - 68.0 °F 100% 30.01 in 10.0 mi North 5.8 mph - 0.01 in   Overcast
10:53 PM 69.1 °F - 68.0 °F 96% 30.02 in 10.0 mi Calm Calm - 0.00 in Rain Light Rain
11:53 PM 69.1 °F - 68.0 °F 96% 30.00 in 10.0 mi Calm Calm - 0.00 in   Overcast